Current weather by "City, St" or "zip code"  
 

Current Conditions: Marion - Williamson County Regional Airport, IL

Overcast


46.0 F

Last Updated on Oct 23 2020, 8:55 pm CDT
Humidity: 86%
Wind Speed: N 6.9 mph
Barometer 30.22 in
Dewpoint: 41.5 F
Visibility: 10.00 mi
Precip: --
Heat Index: NA
Wind Chill: 42 F
Current conditions at:

Marion - Williamson County Regional Airport, IL (KMWA)

Lat: 37.76671 Lon: 89.00993

Local Radar Image active severe weather and emergency alerts image image weather storm and storm spotter reports image weather observation monitoring service image
Local
Radar
Active
Alerts
Storm Reports Obs
Monitoring

Sign-up For Email & Text Message Weather Alert Notification Services



Advertise Here

Observation History for Marion - Williamson County Regional Airport, IL


Time Wind
(mph)
Vis
(mi)
Weather Precip (in) Temperature (F) Relative
Humidity
Wind
Chill
(F)
Heat
Index
(F)
Pressure
Air Dwpt altimeter
(in)
sea level
(mb)
Rmks
8:55 pm CDT N 6.9 10.00 Overcast -- 46.0 41.5 86% 42 NA 30.22 M
7:55 pm CDT NW 9.2 G 19.6 10.00 Overcast -- 46.0 41.9 87% 41 NA 30.18 M
6:45 pm CDT N 12.7 10.00 Overcast -- 46.0 42.8 87% 40 NA 30.16 M
5:45 pm CDT NW 10.4 10.00 Overcast -- 48.0 44.6 87% 43 NA 30.13 M
4:48 pm CDT N 10.4 10.00 Overcast -- 48.0 46.4 94% 43 NA 30.11 M
3:45 pm CDT NW 12.7 10.00 Overcast -- 50.0 46.4 88% 45 NA 30.09 M
2:45 pm CDT NW 18.4 G 25.3 10.00 Overcast -- 55.0 53.6 94% 50 NA 29.99 M
1:48 pm CDT NW 19.6 G 35.7 1.00 Thunderstorm Heavy Rain -- 63.0 60.8 94% 61 NA 29.98 M
12:45 pm CDT SW 16.1 G 24.2 20.00 Mostly Cloudy -- 81.0 68.0 66% NA 84 29.96 M
11:46 am CDT SW 13.8 G 23.0 20.00 Partly Cloudy -- 81.0 68.0 66% NA 84 29.99 M
10:46 am CDT S 12.7 20.00 Partly Cloudy -- 77.0 68.0 74% NA NA 30.00 M
9:46 am CDT S 13.8 20.00 A Few Clouds -- 73.0 66.2 78% NA NA 30.00 M
8:46 am CDT S 11.5 20.00 A Few Clouds -- 70.0 66.2 88% NA NA 30.00 M
7:55 am CDT S 6.9 20.00 A Few Clouds -- 66.0 64.4 94% NA NA 29.99 M
6:48 am CDT S 11.5 20.00 Fair -- 66.0 64.4 94% NA NA 29.98 M
5:55 am CDT S 6.9 10.00 Partly Cloudy -- 66.0 64.4 96% NA NA 29.98 M
4:55 am CDT S 10.4 10.00 Fair -- 68.0 64.8 89% NA NA 29.97 M
3:55 am CDT S 11.5 10.00 Fair -- 66.0 64.4 93% NA NA 29.97 M
2:55 am CDT S 10.4 10.00 Fair -- 67.0 64.6 91% NA NA 29.98 M
1:55 am CDT S 12.7 10.00 Fair -- 69.0 64.8 86% NA NA 29.98 M
12:55 am CDT S 10.4 10.00 Fair -- 67.0 64.4 90% NA NA 29.99 M
11:55 pm CDT S 9.2 10.00 Fair -- 68.0 64.0 87% NA NA 29.99 M
10:55 pm CDT S 5.8 10.00 Fair -- 65.0 62.2 91% NA NA 29.99 M
9:55 pm CDT S 4.6 10.00 Fair -- 68.0 62.6 84% NA NA 30.00 M

Regional Weather Observation


Southern Illinois Airport, IL (KMDH)

Overcast
47.0 F

Sparta Community-Hunter Field Airport, IL (KSAR)

Overcast
45.0 F

Centralia Municipal Airport, IL (KENL)

Overcast
46.0 F

Mount Vernon Airport, IL (KMVN)

Overcast
46.0 F

Harrisburg-Raleigh Airport, IL (KHSB)

Overcast
47.0 F

Belleville, Scott AFB/MidAmerica Airport, IL (KBLV)

Overcast
45.0 F